| time (UTC) | temp F | wind direction | speed MPH | gust MPH | rain 1hr in | rain 24hr in | rain mn in | humidity % | barometer mb |
| 20260831043524 | 84 | 104 | 10.0 | 16.0 | 0.00 | 0.00 | 0.00 | 49 | 1009.4 |
| 20260831043045 | 84 | 105 | 10.0 | 17.0 | 0.00 | 0.00 | 0.00 | 49 | 1009.3 |
| 20260831042524 | 84 | 103 | 10.0 | 17.0 | 0.00 | 0.00 | 0.00 | 49 | 1009.4 |
| 20260831042024 | 84 | 101 | 10.0 | 18.0 | 0.00 | 0.00 | 0.00 | 48 | 1009.5 |
| 20260831041557 | 85 | 94 | 12.0 | 18.0 | 0.00 | 0.00 | 0.00 | 48 | 1009.5 |
| 20260831041024 | 85 | 105 | 11.0 | 15.0 | 0.00 | 0.00 | 0.00 | 48 | 1009.6 |
| 20260831040525 | 85 | 115 | 10.0 | 15.0 | 0.00 | 0.00 | 0.00 | 48 | 1009.6 |
| 20260831040050 | 85 | 97 | 9.0 | 14.0 | 0.00 | 0.00 | 0.00 | 48 | 1009.6 |
| 20260831035524 | 85 | 99 | 9.0 | 14.0 | 0.00 | 0.00 | 0.00 | 48 | 1009.6 |
| 20260831035024 | 85 | 109 | 9.0 | 13.0 | 0.00 | 0.00 | 0.00 | 48 | 1009.6 |
| 20260831034545 | 85 | 119 | 8.0 | 12.0 | 0.00 | 0.00 | 0.00 | 48 | 1009.6 |
| 20260831034027 | 86 | 101 | 9.0 | 12.0 | 0.00 | 0.00 | 0.00 | 47 | 1009.5 |
| 20260831033525 | 86 | 104 | 8.0 | 12.0 | 0.00 | 0.00 | 0.00 | 47 | 1009.6 |
| 20260831033054 | 86 | 102 | 8.0 | 12.0 | 0.00 | 0.00 | 0.00 | 47 | 1009.6 |
| 20260831032525 | 86 | 108 | 7.0 | 13.0 | 0.00 | 0.00 | 0.00 | 47 | 1009.6 |
| 20260831032029 | 86 | 98 | 8.0 | 13.0 | 0.00 | 0.00 | 0.00 | 47 | 1009.6 |
| 20260831031549 | 87 | 108 | 9.0 | 14.0 | 0.00 | 0.00 | 0.00 | 47 | 1009.5 |
| 20260831031024 | 87 | 109 | 9.0 | 16.0 | 0.00 | 0.00 | 0.00 | 47 | 1009.6 |
| 20260831030527 | 87 | 103 | 9.0 | 16.0 | 0.00 | 0.00 | 0.00 | 46 | 1009.5 |
| 20260831030049 | 87 | 98 | 10.0 | 14.0 | 0.00 | 0.00 | 0.00 | 46 | 1009.4 |
| 20260831025525 | 87 | 96 | 9.0 | 12.0 | 0.00 | 0.00 | 0.00 | 46 | 1009.5 |
| 20260831025025 | 87 | 101 | 8.0 | 13.0 | 0.00 | 0.00 | 0.00 | 46 | 1009.4 |
| 20260831024545 | 88 | 105 | 8.0 | 14.0 | 0.00 | 0.00 | 0.00 | 45 | 1009.4 |
| 20260831024024 | 88 | 100 | 9.0 | 14.0 | 0.00 | 0.00 | 0.00 | 45 | 1009.4 |
| 20260831023522 | 88 | 108 | 9.0 | 13.0 | 0.00 | 0.00 | 0.00 | 45 | 1009.3 |
| 20260831023041 | 88 | 100 | 8.0 | 14.0 | 0.00 | 0.00 | 0.00 | 45 | 1009.3 |
| 20260831022525 | 88 | 108 | 9.0 | 14.0 | 0.00 | 0.00 | 0.00 | 45 | 1009.3 |
| 20260831022027 | 88 | 101 | 8.0 | 13.0 | 0.00 | 0.00 | 0.00 | 45 | 1009.2 |
| 20260831021547 | 88 | 109 | 9.0 | 13.0 | 0.00 | 0.00 | 0.00 | 44 | 1009.1 |
| 20260831021025 | 89 | 109 | 9.0 | 13.0 | 0.00 | 0.00 | 0.00 | 44 | 1009.1 |
| 20260831020524 | 89 | 104 | 9.0 | 13.0 | 0.00 | 0.00 | 0.00 | 44 | 1008.8 |
| 20260831020045 | 89 | 126 | 7.0 | 12.0 | 0.00 | 0.00 | 0.00 | 44 | 1008.8 |
| 20260831015525 | 89 | 113 | 8.0 | 13.0 | 0.00 | 0.00 | 0.00 | 43 | 1008.7 |
| 20260831015021 | 90 | 103 | 7.0 | 13.0 | 0.00 | 0.00 | 0.00 | 42 | 1008.6 |
| 20260831014550 | 90 | 107 | 6.0 | 11.0 | 0.00 | 0.00 | 0.00 | 42 | 1008.5 |
| 20260831014024 | 91 | 93 | 6.0 | 11.0 | 0.00 | 0.00 | 0.00 | 41 | 1008.6 |
| 20260831013526 | 91 | 103 | 8.0 | 11.0 | 0.00 | 0.00 | 0.00 | 40 | 1008.3 |
| 20260831013046 | 91 | 102 | 8.0 | 12.0 | 0.00 | 0.00 | 0.00 | 40 | 1008.3 |
| 20260831012524 | 92 | 98 | 8.0 | 12.0 | 0.00 | 0.00 | 0.00 | 39 | 1008.4 |
| 20260831012025 | 92 | 112 | 7.0 | 12.0 | 0.00 | 0.00 | 0.00 | 38 | 1008.3 |
| 20260831011554 | 93 | 102 | 8.0 | 12.0 | 0.00 | 0.00 | 0.00 | 37 | 1008.4 |
| 20260831011024 | 93 | 113 | 7.0 | 18.0 | 0.00 | 0.00 | 0.00 | 37 | 1008.2 |
| 20260831010525 | 94 | 108 | 8.0 | 18.0 | 0.00 | 0.00 | 0.00 | 37 | 1008.2 |
| 20260831010058 | 94 | 128 | 8.0 | 18.0 | 0.00 | 0.00 | 0.00 | 36 | 1008.2 |
| 20260831005525 | 95 | 131 | 7.0 | 13.0 | 0.00 | 0.00 | 0.00 | 36 | 1008.2 |
| 20260831005028 | 95 | 98 | 9.0 | 14.0 | 0.00 | 0.00 | 0.00 | 35 | 1008.1 |
| 20260831004548 | 96 | 123 | 9.0 | 18.0 | 0.00 | 0.00 | 0.00 | 35 | 1008.1 |
| 20260831004024 | 96 | 107 | 10.0 | 18.0 | 0.00 | 0.00 | 0.00 | 35 | 1008.1 |
| 20260831003527 | 97 | 118 | 9.0 | 16.0 | 0.00 | 0.00 | 0.00 | 35 | 1008.1 |
| 20260831003045 | 98 | 112 | 8.0 | 16.0 | 0.00 | 0.00 | 0.00 | 34 | 1008.1 |
| 20260831002524 | 98 | 99 | 8.0 | 16.0 | 0.00 | 0.00 | 0.00 | 34 | 1008.1 |
| 20260831002024 | 98 | 123 | 10.0 | 20.0 | 0.00 | 0.00 | 0.00 | 34 | 1008.1 |
| 20260831001544 | 99 | 132 | 12.0 | 21.0 | 0.00 | 0.00 | 0.00 | 33 | 1008.1 |
| 20260831001025 | 99 | 127 | 14.0 | 21.0 | 0.00 | 0.00 | 0.00 | 33 | 1008.2 |
| 20260831000525 | 99 | 129 | 13.0 | 21.0 | 0.00 | 0.00 | 0.00 | 33 | 1008.1 |
| 20260831000045 | 100 | 120 | 14.0 | 26.0 | 0.00 | 0.00 | 0.00 | 32 | 1008.1 |
| 20260830235524 | 100 | 113 | 14.0 | 26.0 | 0.00 | 0.00 | 0.00 | 32 | 1008.1 |
| 20260830235024 | 100 | 106 | 11.0 | 23.0 | 0.00 | 0.00 | 0.00 | 32 | 1008.0 |
| 20260830234550 | 100 | 107 | 14.0 | 24.0 | 0.00 | 0.00 | 0.00 | 32 | 1008.1 |
| 20260830234026 | 101 | 121 | 14.0 | 27.0 | 0.00 | 0.00 | 0.00 | 32 | 1008.0 |
| 20260830233525 | 101 | 116 | 15.0 | 27.0 | 0.00 | 0.00 | 0.00 | 31 | 1007.9 |
| 20260830233044 | 101 | 98 | 12.0 | 22.0 | 0.00 | 0.00 | 0.00 | 31 | 1007.8 |
| 20260830232526 | 101 | 100 | 10.0 | 21.0 | 0.00 | 0.00 | 0.00 | 32 | 1007.9 |
| 20260830232025 | 102 | 150 | 13.0 | 26.0 | 0.00 | 0.00 | 0.00 | 31 | 1008.0 |
| 20260830231543 | 102 | 125 | 15.0 | 26.0 | 0.00 | 0.00 | 0.00 | 32 | 1007.9 |
| 20260830231024 | 102 | 114 | 12.0 | 26.0 | 0.00 | 0.00 | 0.00 | 31 | 1007.9 |
| 20260830230524 | 102 | 123 | 16.0 | 26.0 | 0.00 | 0.00 | 0.00 | 31 | 1007.9 |
| 20260830230047 | 103 | 134 | 12.0 | 21.0 | 0.00 | 0.00 | 0.00 | 31 | 1007.7 |
| 20260830225525 | 103 | 113 | 12.0 | 24.0 | 0.00 | 0.00 | 0.00 | 31 | 1007.7 |
| 20260830225024 | 103 | 134 | 14.0 | 24.0 | 0.00 | 0.00 | 0.00 | 31 | 1007.6 |
| 20260830224548 | 103 | 126 | 14.0 | 23.0 | 0.00 | 0.00 | 0.00 | 31 | 1007.6 |
| 20260830224025 | 103 | 131 | 14.0 | 29.0 | 0.00 | 0.00 | 0.00 | 31 | 1007.6 |
| 20260830223524 | 103 | 119 | 16.0 | 29.0 | 0.00 | 0.00 | 0.00 | 30 | 1007.7 |
| 20260830223045 | 103 | 132 | 14.0 | 27.0 | 0.00 | 0.00 | 0.00 | 30 | 1007.7 |
| 20260830222526 | 104 | 145 | 18.0 | 27.0 | 0.00 | 0.00 | 0.00 | 30 | 1007.6 |
| 20260830222024 | 104 | 114 | 13.0 | 24.0 | 0.00 | 0.00 | 0.00 | 30 | 1007.6 |
| 20260830221541 | 104 | 109 | 13.0 | 26.0 | 0.00 | 0.00 | 0.00 | 31 | 1007.6 |
| 20260830221028 | 104 | 123 | 13.0 | 26.0 | 0.00 | 0.00 | 0.00 | 30 | 1007.7 |
| 20260830220524 | 104 | 109 | 14.0 | 21.0 | 0.00 | 0.00 | 0.00 | 29 | 1007.7 |
| 20260830220049 | 105 | 118 | 14.0 | 24.0 | 0.00 | 0.00 | 0.00 | 29 | 1007.7 |
| 20260830215524 | 105 | 121 | 15.0 | 24.0 | 0.00 | 0.00 | 0.00 | 29 | 1007.7 |
| 20260830215025 | 105 | 138 | 11.0 | 24.0 | 0.00 | 0.00 | 0.00 | 29 | 1007.8 |
| 20260830214545 | 104 | 123 | 16.0 | 24.0 | 0.00 | 0.00 | 0.00 | 30 | 1007.7 |
| 20260830214025 | 105 | 122 | 13.0 | 29.0 | 0.00 | 0.00 | 0.00 | 30 | 1007.6 |
| 20260830213528 | 105 | 134 | 17.0 | 29.0 | 0.00 | 0.00 | 0.00 | 30 | 1007.7 |
| 20260830213101 | 105 | 118 | 16.0 | 29.0 | 0.00 | 0.00 | 0.00 | 30 | 1007.6 |
| 20260830212525 | 105 | 113 | 20.0 | 30.0 | 0.00 | 0.00 | 0.00 | 30 | 1007.6 |
| 20260830212024 | 104 | 74 | 19.0 | 30.0 | 0.00 | 0.00 | 0.00 | 31 | 1007.7 |
| 20260830211550 | 104 | 136 | 17.0 | 29.0 | 0.00 | 0.00 | 0.00 | 31 | 1007.8 |
| 20260830211025 | 105 | 113 | 19.0 | 29.0 | 0.00 | 0.00 | 0.00 | 30 | 1007.8 |
| 20260830210523 | 105 | 117 | 16.0 | 29.0 | 0.00 | 0.00 | 0.00 | 30 | 1008.0 |
| 20260830210046 | 105 | 124 | 18.0 | 29.0 | 0.00 | 0.00 | 0.00 | 30 | 1008.0 |
| 20260830205529 | 106 | 137 | 15.0 | 25.0 | 0.00 | 0.00 | 0.00 | 30 | 1008.1 |
| 20260830205025 | 106 | 121 | 12.0 | 31.0 | 0.00 | 0.00 | 0.00 | 30 | 1008.1 |
| 20260830204543 | 105 | 105 | 17.0 | 31.0 | 0.00 | 0.00 | 0.00 | 30 | 1008.2 |
| 20260830204025 | 105 | 134 | 18.0 | 29.0 | 0.00 | 0.00 | 0.00 | 30 | 1008.2 |
| 20260830203524 | 105 | 125 | 16.0 | 33.0 | 0.00 | 0.00 | 0.00 | 30 | 1008.3 |
| 20260830203050 | 105 | 126 | 17.0 | 33.0 | 0.00 | 0.00 | 0.00 | 31 | 1008.4 |
| 20260830202526 | 105 | 104 | 13.0 | 27.0 | 0.00 | 0.00 | 0.00 | 31 | 1008.5 |
| 20260830202025 | 105 | 133 | 14.0 | 27.0 | 0.00 | 0.00 | 0.00 | 30 | 1008.4 |
| 20260830201546 | 105 | 119 | 14.0 | 27.0 | 0.00 | 0.00 | 0.00 | 30 | 1008.5 |
| 20260830201025 | 104 | 125 | 18.0 | 27.0 | 0.00 | 0.00 | 0.00 | 30 | 1008.6 |
| 20260830200524 | 105 | 140 | 17.0 | 25.0 | 0.00 | 0.00 | 0.00 | 30 | 1008.7 |
| 20260830200045 | 105 | 115 | 15.0 | 26.0 | 0.00 | 0.00 | 0.00 | 31 | 1008.6 |
| 20260830195524 | 104 | 130 | 13.0 | 31.0 | 0.00 | 0.00 | 0.00 | 31 | 1008.7 |
| 20260830195025 | 105 | 165 | 17.0 | 31.0 | 0.00 | 0.00 | 0.00 | 30 | 1008.8 |
| 20260830194544 | 105 | 117 | 15.0 | 30.0 | 0.00 | 0.00 | 0.00 | 31 | 1008.9 |
| 20260830194024 | 105 | 139 | 16.0 | 30.0 | 0.00 | 0.00 | 0.00 | 31 | 1008.9 |
| 20260830193525 | 104 | 105 | 16.0 | 30.0 | 0.00 | 0.00 | 0.00 | 31 | 1008.9 |
| 20260830193047 | 104 | 137 | 15.0 | 26.0 | 0.00 | 0.00 | 0.00 | 32 | 1009.1 |
| 20260830192524 | 104 | 134 | 13.0 | 28.0 | 0.00 | 0.00 | 0.00 | 31 | 1009.1 |
| 20260830192024 | 104 | 148 | 16.0 | 29.0 | 0.00 | 0.00 | 0.00 | 32 | 1009.2 |
| 20260830191546 | 104 | 111 | 18.0 | 29.0 | 0.00 | 0.00 | 0.00 | 32 | 1009.1 |
| 20260830191024 | 103 | 139 | 16.0 | 29.0 | 0.00 | 0.00 | 0.00 | 33 | 1009.1 |
| 20260830190524 | 103 | 137 | 15.0 | 34.0 | 0.00 | 0.00 | 0.00 | 33 | 1009.2 |
| 20260830190044 | 103 | 107 | 19.0 | 34.0 | 0.00 | 0.00 | 0.00 | 34 | 1009.1 |
| 20260830185525 | 103 | 139 | 15.0 | 34.0 | 0.00 | 0.00 | 0.00 | 34 | 1009.3 |
| 20260830185025 | 103 | 113 | 15.0 | 31.0 | 0.00 | 0.00 | 0.00 | 34 | 1009.3 |
| 20260830184550 | 103 | 138 | 17.0 | 33.0 | 0.00 | 0.00 | 0.00 | 33 | 1009.3 |
| 20260830184024 | 103 | 157 | 13.0 | 33.0 | 0.00 | 0.00 | 0.00 | 34 | 1009.4 |
| 20260830183526 | 103 | 132 | 13.0 | 27.0 | 0.00 | 0.00 | 0.00 | 35 | 1009.4 |
| 20260830183047 | 102 | 122 | 16.0 | 27.0 | 0.00 | 0.00 | 0.00 | 35 | 1009.4 |
| 20260830182532 | 102 | 146 | 15.0 | 30.0 | 0.00 | 0.00 | 0.00 | 35 | 1009.5 |
| 20260830182026 | 102 | 136 | 15.0 | 30.0 | 0.00 | 0.00 | 0.00 | 35 | 1009.4 |
| 20260830181546 | 101 | 148 | 20.0 | 30.0 | 0.00 | 0.00 | 0.00 | 36 | 1009.4 |
| 20260830181027 | 102 | 135 | 15.0 | 29.0 | 0.00 | 0.00 | 0.00 | 36 | 1009.6 |
| 20260830180525 | 101 | 127 | 20.0 | 31.0 | 0.00 | 0.00 | 0.00 | 36 | 1009.7 |
| 20260830180044 | 101 | 124 | 17.0 | 31.0 | 0.00 | 0.00 | 0.00 | 36 | 1009.7 |
| 20260830175524 | 101 | 142 | 17.0 | 28.0 | 0.00 | 0.00 | 0.00 | 37 | 1010.0 |
| 20260830175025 | 100 | 135 | 16.0 | 27.0 | 0.00 | 0.00 | 0.00 | 37 | 1010.0 |
| 20260830174547 | 100 | 128 | 13.0 | 27.0 | 0.00 | 0.00 | 0.00 | 38 | 1010.1 |
| 20260830174025 | 100 | 136 | 17.0 | 27.0 | 0.00 | 0.00 | 0.00 | 38 | 1010.1 |
| 20260830173527 | 100 | 134 | 16.0 | 27.0 | 0.00 | 0.00 | 0.00 | 38 | 1010.3 |
| 20260830173045 | 99 | 130 | 15.0 | 34.0 | 0.00 | 0.00 | 0.00 | 39 | 1010.4 |
| 20260830172524 | 98 | 147 | 17.0 | 34.0 | 0.00 | 0.00 | 0.00 | 39 | 1010.5 |
| 20260830172026 | 98 | 139 | 22.0 | 34.0 | 0.00 | 0.00 | 0.00 | 39 | 1010.6 |
| 20260830171546 | 98 | 132 | 15.0 | 28.0 | 0.00 | 0.00 | 0.00 | 39 | 1010.6 |
| 20260830171025 | 98 | 139 | 14.0 | 28.0 | 0.00 | 0.00 | 0.00 | 40 | 1010.6 |
| 20260830170524 | 97 | 131 | 18.0 | 28.0 | 0.00 | 0.00 | 0.00 | 40 | 1010.6 |
| 20260830170047 | 97 | 110 | 18.0 | 29.0 | 0.00 | 0.00 | 0.00 | 40 | 1010.6 |
| 20260830165525 | 97 | 126 | 13.0 | 29.0 | 0.00 | 0.00 | 0.00 | 41 | 1010.7 |
| 20260830165024 | 97 | 120 | 14.0 | 29.0 | 0.00 | 0.00 | 0.00 | 41 | 1010.9 |
| 20260830164549 | 96 | 142 | 14.0 | 28.0 | 0.00 | 0.00 | 0.00 | 42 | 1010.9 |
| 20260830164027 | 96 | 144 | 15.0 | 27.0 | 0.00 | 0.00 | 0.00 | 41 | 1011.0 |
| 20260830163526 | 96 | 115 | 11.0 | 27.0 | 0.00 | 0.00 | 0.00 | 42 | 1011.0 |
| 20260830163045 | 95 | 125 | 16.0 | 29.0 | 0.00 | 0.00 | 0.00 | 42 | 1010.8 |
| 20260830162523 | 94 | 141 | 13.0 | 29.0 | 0.00 | 0.00 | 0.00 | 43 | 1011.0 |
| 20260830162025 | 94 | 125 | 16.0 | 27.0 | 0.00 | 0.00 | 0.00 | 43 | 1011.0 |
| 20260830161557 | 94 | 134 | 15.0 | 27.0 | 0.00 | 0.00 | 0.00 | 43 | 1011.0 |
| 20260830161028 | 94 | 130 | 13.0 | 29.0 | 0.00 | 0.00 | 0.00 | 44 | 1011.0 |
| 20260830160526 | 93 | 149 | 18.0 | 29.0 | 0.00 | 0.00 | 0.00 | 44 | 1011.0 |
| 20260830160049 | 93 | 134 | 17.0 | 28.0 | 0.00 | 0.00 | 0.00 | 44 | 1011.0 |
| 20260830155525 | 93 | 127 | 18.0 | 27.0 | 0.00 | 0.00 | 0.00 | 43 | 1011.1 |
| 20260830155024 | 93 | 148 | 11.0 | 30.0 | 0.00 | 0.00 | 0.00 | 44 | 1010.9 |
| 20260830154547 | 92 | 129 | 13.0 | 30.0 | 0.00 | 0.00 | 0.00 | 45 | 1011.0 |
| 20260830154024 | 92 | 134 | 17.0 | 27.0 | 0.00 | 0.00 | 0.00 | 45 | 1011.0 |
| 20260830153524 | 92 | 144 | 15.0 | 27.0 | 0.00 | 0.00 | 0.00 | 45 | 1011.0 |
| 20260830153047 | 91 | 150 | 14.0 | 26.0 | 0.00 | 0.00 | 0.00 | 45 | 1010.9 |
| 20260830152525 | 91 | 152 | 11.0 | 27.0 | 0.00 | 0.00 | 0.00 | 46 | 1011.0 |
| 20260830152022 | 90 | 122 | 12.0 | 27.0 | 0.00 | 0.00 | 0.00 | 47 | 1011.0 |
| 20260830151549 | 90 | 150 | 17.0 | 26.0 | 0.00 | 0.00 | 0.00 | 47 | 1011.0 |
| 20260830151024 | 90 | 132 | 13.0 | 25.0 | 0.00 | 0.00 | 0.00 | 48 | 1011.0 |
| 20260830150527 | 89 | 128 | 11.0 | 25.0 | 0.00 | 0.00 | 0.00 | 48 | 1011.1 |
| 20260830150111 | 89 | 115 | 15.0 | 24.0 | 0.00 | 0.00 | 0.00 | 48 | 1011.1 |
| 20260830145524 | 88 | 100 | 15.0 | 24.0 | 0.00 | 0.00 | 0.00 | 49 | 1011.0 |
| 20260830145024 | 88 | 136 | 14.0 | 23.0 | 0.00 | 0.00 | 0.00 | 49 | 1011.0 |
| 20260830144545 | 87 | 134 | 15.0 | 23.0 | 0.00 | 0.00 | 0.00 | 50 | 1011.1 |
| 20260830144024 | 87 | 126 | 14.0 | 28.0 | 0.00 | 0.00 | 0.00 | 51 | 1011.1 |
| 20260830143525 | 86 | 117 | 12.0 | 28.0 | 0.00 | 0.00 | 0.00 | 52 | 1011.1 |
| 20260830143045 | 85 | 155 | 13.0 | 28.0 | 0.00 | 0.00 | 0.00 | 53 | 1011.1 |
| 20260830142524 | 85 | 152 | 12.0 | 21.0 | 0.00 | 0.00 | 0.00 | 54 | 1011.1 |
| 20260830142024 | 84 | 133 | 11.0 | 21.0 | 0.00 | 0.00 | 0.00 | 55 | 1011.1 |
| 20260830141546 | 84 | 126 | 12.0 | 21.0 | 0.00 | 0.00 | 0.00 | 55 | 1011.1 |
| 20260830141026 | 83 | 127 | 12.0 | 21.0 | 0.00 | 0.00 | 0.00 | 56 | 1011.1 |
| 20260830140525 | 82 | 124 | 10.0 | 19.0 | 0.00 | 0.00 | 0.00 | 57 | 1011.2 |
| 20260830140045 | 82 | 122 | 9.0 | 17.0 | 0.00 | 0.00 | 0.00 | 58 | 1011.2 |
| 20260830135527 | 81 | 126 | 10.0 | 17.0 | 0.00 | 0.00 | 0.00 | 59 | 1011.3 |
| 20260830135026 | 80 | 130 | 9.0 | 15.0 | 0.00 | 0.00 | 0.00 | 60 | 1011.3 |
| 20260830134547 | 80 | 137 | 9.0 | 16.0 | 0.00 | 0.00 | 0.00 | 61 | 1011.3 |
| 20260830134025 | 79 | 123 | 9.0 | 16.0 | 0.00 | 0.00 | 0.00 | 62 | 1011.3 |
| 20260830133524 | 78 | 123 | 9.0 | 14.0 | 0.00 | 0.00 | 0.00 | 63 | 1011.3 |
| 20260830133047 | 77 | 127 | 9.0 | 15.0 | 0.00 | 0.00 | 0.00 | 64 | 1011.2 |
| 20260830132526 | 77 | 105 | 8.0 | 15.0 | 0.00 | 0.00 | 0.00 | 65 | 1011.3 |
| 20260830132024 | 76 | 107 | 8.0 | 15.0 | 0.00 | 0.00 | 0.00 | 66 | 1011.4 |
| 20260830131546 | 76 | 110 | 8.0 | 15.0 | 0.00 | 0.00 | 0.00 | 66 | 1011.3 |
| 20260830131024 | 76 | 145 | 9.0 | 15.0 | 0.00 | 0.00 | 0.00 | 66 | 1011.3 |
| 20260830130528 | 75 | 113 | 9.0 | 13.0 | 0.00 | 0.00 | 0.00 | 66 | 1011.3 |
| 20260830130043 | 75 | 121 | 8.0 | 12.0 | 0.00 | 0.00 | 0.00 | 67 | 1011.3 |
| 20260830125525 | 75 | 107 | 9.0 | 13.0 | 0.00 | 0.00 | 0.00 | 67 | 1011.2 |
| 20260830125025 | 74 | 104 | 9.0 | 13.0 | 0.00 | 0.00 | 0.00 | 68 | 1011.3 |
| 20260830124546 | 74 | 90 | 8.0 | 14.0 | 0.00 | 0.00 | 0.00 | 68 | 1011.3 |
| 20260830124028 | 74 | 113 | 9.0 | 14.0 | 0.00 | 0.00 | 0.00 | 68 | 1011.3 |
| 20260830123524 | 74 | 110 | 9.0 | 14.0 | 0.00 | 0.00 | 0.00 | 68 | 1011.2 |
| 20260830123046 | 74 | 102 | 9.0 | 14.0 | 0.00 | 0.00 | 0.00 | 68 | 1011.2 |
| 20260830122525 | 73 | 105 | 9.0 | 14.0 | 0.00 | 0.00 | 0.00 | 68 | 1011.3 |
| 20260830122026 | 73 | 95 | 8.0 | 12.0 | 0.00 | 0.00 | 0.00 | 68 | 1011.2 |
| 20260830121554 | 74 | 113 | 7.0 | 12.0 | 0.00 | 0.00 | 0.00 | 68 | 1011.1 |
| 20260830121025 | 73 | 112 | 8.0 | 11.0 | 0.00 | 0.00 | 0.00 | 67 | 1011.2 |
| 20260830120525 | 74 | 112 | 7.0 | 11.0 | 0.00 | 0.00 | 0.00 | 67 | 1011.0 |
| 20260830120048 | 74 | 109 | 8.0 | 12.0 | 0.00 | 0.00 | 0.00 | 67 | 1011.2 |
| 20260830115525 | 74 | 108 | 7.0 | 12.0 | 0.00 | 0.00 | 0.00 | 67 | 1011.2 |
| 20260830115023 | 74 | 120 | 8.0 | 11.0 | 0.00 | 0.00 | 0.00 | 67 | 1011.2 |
| 20260830114603 | 74 | 111 | 7.0 | 11.0 | 0.00 | 0.00 | 0.00 | 67 | 1011.0 |
| 20260830114024 | 74 | 122 | 8.0 | 11.0 | 0.00 | 0.00 | 0.00 | 67 | 1011.1 |
| 20260830113524 | 74 | 105 | 6.0 | 12.0 | 0.00 | 0.00 | 0.00 | 67 | 1011.0 |
| 20260830113042 | 74 | 117 | 7.0 | 12.0 | 0.00 | 0.00 | 0.00 | 66 | 1010.9 |
| 20260830112523 | 74 | 117 | 7.0 | 12.0 | 0.00 | 0.00 | 0.00 | 66 | 1010.9 |
| 20260830112024 | 74 | 123 | 7.0 | 12.0 | 0.00 | 0.00 | 0.00 | 66 | 1010.8 |
| 20260830111547 | 74 | 105 | 8.0 | 12.0 | 0.00 | 0.00 | 0.00 | 66 | 1010.9 |
| 20260830111024 | 74 | 117 | 7.0 | 12.0 | 0.00 | 0.00 | 0.00 | 66 | 1010.9 |
| 20260830110524 | 74 | 96 | 8.0 | 10.0 | 0.00 | 0.00 | 0.00 | 66 | 1010.8 |
| 20260830110048 | 74 | 114 | 7.0 | 12.0 | 0.00 | 0.00 | 0.00 | 66 | 1011.0 |
| 20260830105527 | 74 | 109 | 6.0 | 12.0 | 0.00 | 0.00 | 0.00 | 66 | 1011.1 |
| 20260830105027 | 74 | 122 | 7.0 | 12.0 | 0.00 | 0.00 | 0.00 | 66 | 1011.0 |
| 20260830104545 | 74 | 101 | 7.0 | 13.0 | 0.00 | 0.00 | 0.00 | 66 | 1010.8 |
| 20260830104024 | 74 | 134 | 7.0 | 13.0 | 0.00 | 0.00 | 0.00 | 66 | 1010.9 |
| 20260830103527 | 74 | 117 | 8.0 | 13.0 | 0.00 | 0.00 | 0.00 | 66 | 1011.0 |
| 20260830103042 | 74 | 116 | 7.0 | 11.0 | 0.00 | 0.00 | 0.00 | 66 | 1011.0 |
| 20260830102525 | 74 | 122 | 7.0 | 11.0 | 0.00 | 0.00 | 0.00 | 67 | 1011.0 |
| 20260830102023 | 74 | 115 | 6.0 | 11.0 | 0.00 | 0.00 | 0.00 | 67 | 1011.0 |
| 20260830101550 | 74 | 108 | 6.0 | 9.0 | 0.00 | 0.00 | 0.00 | 67 | 1010.9 |
| 20260830101026 | 74 | 120 | 5.0 | 10.0 | 0.00 | 0.00 | 0.00 | 67 | 1011.0 |
| 20260830100525 | 74 | 104 | 6.0 | 13.0 | 0.00 | 0.00 | 0.00 | 67 | 1011.0 |
| 20260830100047 | 74 | 107 | 8.0 | 13.0 | 0.00 | 0.00 | 0.00 | 67 | 1010.9 |
| 20260830095525 | 74 | 130 | 7.0 | 10.0 | 0.00 | 0.00 | 0.00 | 67 | 1010.8 |
| 20260830095024 | 74 | 114 | 7.0 | 10.0 | 0.00 | 0.00 | 0.00 | 67 | 1010.8 |
| 20260830094543 | 74 | 110 | 6.0 | 11.0 | 0.00 | 0.00 | 0.00 | 67 | 1010.9 |
| 20260830094024 | 74 | 114 | 7.0 | 11.0 | 0.00 | 0.00 | 0.00 | 67 | 1010.9 |
| 20260830093522 | 74 | 105 | 6.0 | 9.0 | 0.00 | 0.00 | 0.00 | 66 | 1010.7 |
| 20260830093049 | 74 | 111 | 6.0 | 8.0 | 0.00 | 0.00 | 0.00 | 66 | 1010.7 |
| 20260830092525 | 75 | 102 | 4.0 | 8.0 | 0.00 | 0.00 | 0.00 | 66 | 1010.8 |
| 20260830092024 | 75 | 109 | 5.0 | 8.0 | 0.00 | 0.00 | 0.00 | 65 | 1010.8 |
| 20260830091547 | 75 | 107 | 5.0 | 8.0 | 0.00 | 0.00 | 0.00 | 64 | 1010.8 |
| 20260830091025 | 75 | 110 | 4.0 | 8.0 | 0.00 | 0.00 | 0.00 | 64 | 1010.8 |
| 20260830090527 | 76 | 105 | 4.0 | 8.0 | 0.00 | 0.00 | 0.00 | 64 | 1010.9 |
| 20260830090059 | 76 | 111 | 5.0 | 8.0 | 0.00 | 0.00 | 0.00 | 63 | 1010.8 |
| 20260830085525 | 76 | 119 | 5.0 | 8.0 | 0.00 | 0.00 | 0.00 | 63 | 1010.6 |
| 20260830085025 | 76 | 115 | 5.0 | 8.0 | 0.00 | 0.00 | 0.00 | 62 | 1010.6 |
| 20260830084555 | 77 | 105 | 4.0 | 7.0 | 0.00 | 0.00 | 0.00 | 62 | 1010.7 |
| 20260830084025 | 77 | 103 | 4.0 | 8.0 | 0.00 | 0.00 | 0.00 | 62 | 1010.8 |
| 20260830083529 | 77 | 115 | 4.0 | 10.0 | 0.00 | 0.00 | 0.00 | 62 | 1010.6 |
| 20260830083049 | 77 | 115 | 5.0 | 10.0 | 0.00 | 0.00 | 0.00 | 61 | 1010.4 |
| 20260830082523 | 77 | 124 | 7.0 | 10.0 | 0.00 | 0.00 | 0.00 | 61 | 1010.5 |
| 20260830082024 | 77 | 119 | 6.0 | 9.0 | 0.00 | 0.00 | 0.00 | 61 | 1010.7 |
| 20260830081553 | 78 | 119 | 6.0 | 10.0 | 0.00 | 0.00 | 0.00 | 61 | 1010.5 |
| 20260830081025 | 78 | 121 | 5.0 | 10.0 | 0.00 | 0.00 | 0.00 | 60 | 1010.4 |
| 20260830080526 | 78 | 115 | 5.0 | 9.0 | 0.00 | 0.00 | 0.00 | 60 | 1010.4 |
| 20260830080050 | 78 | 107 | 6.0 | 9.0 | 0.00 | 0.00 | 0.00 | 60 | 1010.5 |
| 20260830075525 | 78 | 127 | 6.0 | 9.0 | 0.00 | 0.00 | 0.00 | 59 | 1010.4 |
| 20260830075024 | 79 | 117 | 6.0 | 11.0 | 0.00 | 0.00 | 0.00 | 59 | 1010.6 |
| 20260830074604 | 79 | 98 | 6.0 | 11.0 | 0.00 | 0.00 | 0.00 | 59 | 1010.3 |
| 20260830074027 | 79 | 117 | 5.0 | 11.0 | 0.00 | 0.00 | 0.00 | 58 | 1010.4 |
| 20260830073524 | 79 | 119 | 5.0 | 11.0 | 0.00 | 0.00 | 0.00 | 58 | 1010.4 |
| 20260830073055 | 80 | 118 | 6.0 | 10.0 | 0.00 | 0.00 | 0.00 | 57 | 1010.3 |
| 20260830072526 | 80 | 120 | 5.0 | 10.0 | 0.00 | 0.00 | 0.00 | 57 | 1010.4 |
| 20260830072025 | 80 | 115 | 7.0 | 11.0 | 0.00 | 0.00 | 0.00 | 57 | 1010.4 |
| 20260830071553 | 80 | 137 | 7.0 | 12.0 | 0.00 | 0.00 | 0.00 | 56 | 1010.4 |
| 20260830071025 | 80 | 107 | 7.0 | 12.0 | 0.00 | 0.00 | 0.00 | 56 | 1010.5 |
| 20260830070525 | 81 | 121 | 7.0 | 12.0 | 0.00 | 0.00 | 0.00 | 56 | 1010.5 |
| 20260830070049 | 81 | 120 | 7.0 | 13.0 | 0.00 | 0.00 | 0.00 | 55 | 1010.5 |
| 20260830065525 | 81 | 111 | 7.0 | 13.0 | 0.00 | 0.00 | 0.00 | 55 | 1010.6 |
| 20260830065024 | 81 | 127 | 7.0 | 12.0 | 0.00 | 0.00 | 0.00 | 54 | 1010.6 |
| 20260830064546 | 82 | 132 | 8.0 | 14.0 | 0.00 | 0.00 | 0.00 | 54 | 1010.6 |
| 20260830064028 | 82 | 142 | 7.0 | 14.0 | 0.00 | 0.00 | 0.00 | 54 | 1010.6 |
| 20260830063525 | 82 | 107 | 9.0 | 14.0 | 0.00 | 0.00 | 0.00 | 54 | 1010.5 |
| 20260830063053 | 82 | 109 | 9.0 | 14.0 | 0.00 | 0.00 | 0.00 | 54 | 1010.4 |
| 20260830062524 | 82 | 111 | 9.0 | 14.0 | 0.00 | 0.00 | 0.00 | 53 | 1010.6 |
| 20260830062026 | 82 | 125 | 10.0 | 16.0 | 0.00 | 0.00 | 0.00 | 53 | 1010.6 |
| 20260830061542 | 82 | 125 | 9.0 | 17.0 | 0.00 | 0.00 | 0.00 | 53 | 1010.5 |
| 20260830061025 | 82 | 117 | 10.0 | 17.0 | 0.00 | 0.00 | 0.00 | 53 | 1010.5 |
| 20260830060524 | 82 | 102 | 9.0 | 16.0 | 0.00 | 0.00 | 0.00 | 53 | 1010.5 |
| 20260830060047 | 82 | 121 | 9.0 | 15.0 | 0.00 | 0.00 | 0.00 | 53 | 1010.6 |
| 20260830055521 | 82 | 102 | 8.0 | 15.0 | 0.00 | 0.00 | 0.00 | 53 | 1010.6 |
| 20260830055025 | 82 | 107 | 10.0 | 15.0 | 0.00 | 0.00 | 0.00 | 53 | 1010.6 |
| 20260830054545 | 82 | 122 | 9.0 | 15.0 | 0.00 | 0.00 | 0.00 | 53 | 1010.6 |
| 20260830054024 | 83 | 103 | 9.0 | 14.0 | 0.00 | 0.00 | 0.00 | 53 | 1010.6 |
| 20260830053524 | 83 | 109 | 9.0 | 13.0 | 0.00 | 0.00 | 0.00 | 53 | 1010.6 |
| 20260830053043 | 83 | 115 | 9.0 | 17.0 | 0.00 | 0.00 | 0.00 | 53 | 1010.6 |
| 20260830052525 | 83 | 116 | 9.0 | 17.0 | 0.00 | 0.00 | 0.00 | 53 | 1010.7 |
| 20260830052026 | 83 | 119 | 9.0 | 16.0 | 0.00 | 0.00 | 0.00 | 53 | 1010.6 |
| 20260830051548 | 83 | 107 | 10.0 | 16.0 | 0.00 | 0.00 | 0.00 | 53 | 1010.6 |
| 20260830051024 | 83 | 104 | 10.0 | 15.0 | 0.00 | 0.00 | 0.00 | 53 | 1010.5 |
| 20260830050526 | 83 | 105 | 9.0 | 14.0 | 0.00 | 0.00 | 0.00 | 53 | 1010.5 |
| 20260830050051 | 83 | 101 | 9.0 | 16.0 | 0.00 | 0.00 | 0.00 | 53 | 1010.5 |
| 20260830045524 | 83 | 123 | 9.0 | 16.0 | 0.00 | 0.00 | 0.00 | 53 | 1010.5 |
| 20260830045023 | 83 | 84 | 9.0 | 16.0 | 0.00 | 0.00 | 0.00 | 53 | 1010.4 |
| 20260830044603 | 83 | 108 | 8.0 | 16.0 | 0.00 | 0.00 | 0.00 | 53 | 1010.4 |
| 20260830044025 | 83 | 105 | 9.0 | 13.0 | 0.00 | 0.00 | 0.00 | 53 | 1010.4 |